TimePDT,TemperatureF,Dew PointF,Humidity,Sea Level PressureIn,VisibilityMPH,Wind Direction,Wind SpeedMPH,Gust SpeedMPH,PrecipitationIn,Events,Conditions,WindDirDegrees,DateUTC
12:15 AM,59.0,59.0,100,29.90,10.0,ENE,4.6,-,N/A,,Unknown,60,2013-08-20 07:15:00
12:35 AM,59.0,59.0,100,29.90,10.0,North,6.9,-,N/A,,Clear,360,2013-08-20 07:35:00
12:55 AM,59.0,59.0,100,29.89,10.0,NNW,6.9,-,N/A,,Clear,340,2013-08-20 07:55:00
1:15 AM,59.0,59.0,100,29.89,10.0,NNW,6.9,-,N/A,,Clear,340,2013-08-20 08:15:00
1:35 AM,59.0,59.0,100,29.89,10.0,NNW,6.9,-,N/A,,Clear,340,2013-08-20 08:35:00
1:55 AM,59.0,59.0,100,29.88,10.0,North,8.1,-,N/A,,Clear,350,2013-08-20 08:55:00
2:15 AM,59.0,59.0,100,29.87,10.0,NNW,9.2,-,N/A,,Clear,340,2013-08-20 09:15:00
2:35 AM,59.0,59.0,100,29.86,10.0,North,6.9,-,N/A,,Clear,350,2013-08-20 09:35:00
2:55 AM,59.0,59.0,100,29.86,10.0,NNW,9.2,-,N/A,,Clear,340,2013-08-20 09:55:00
3:15 AM,59.0,59.0,100,29.86,10.0,NNW,9.2,-,N/A,,Clear,330,2013-08-20 10:15:00
3:35 AM,59.0,59.0,100,29.86,10.0,NNW,9.2,-,N/A,,Clear,330,2013-08-20 10:35:00
3:55 AM,59.0,59.0,100,29.85,10.0,NNW,10.4,-,N/A,,Clear,330,2013-08-20 10:55:00
4:15 AM,59.0,59.0,100,29.85,10.0,NNW,11.5,-,N/A,,Clear,340,2013-08-20 11:15:00
4:35 AM,60.8,59.0,94,29.85,10.0,NNW,10.4,-,N/A,,Clear,330,2013-08-20 11:35:00
4:55 AM,59.0,59.0,100,29.86,10.0,NNW,4.6,-,N/A,,Clear,330,2013-08-20 11:55:00
5:15 AM,59.0,59.0,100,29.86,10.0,North,3.5,-,N/A,,Clear,10,2013-08-20 12:15:00
5:35 AM,59.0,59.0,100,29.86,10.0,North,4.6,-,N/A,,Clear,350,2013-08-20 12:35:00
5:55 AM,59.0,59.0,100,29.87,10.0,NNW,3.5,-,N/A,,Clear,340,2013-08-20 12:55:00
6:15 AM,57.2,57.2,100,29.87,10.0,Calm,Calm,-,N/A,,Mostly Cloudy,0,2013-08-20 13:15:00
6:35 AM,59.0,59.0,100,29.88,10.0,Calm,Calm,-,N/A,,Overcast,0,2013-08-20 13:35:00
6:55 AM,59.0,59.0,100,29.89,10.0,Calm,Calm,-,N/A,,Overcast,0,2013-08-20 13:55:00
7:15 AM,59.0,59.0,100,29.89,10.0,North,4.6,-,N/A,,Overcast,10,2013-08-20 14:15:00
7:35 AM,60.8,60.8,100,29.89,10.0,Calm,Calm,-,N/A,,Unknown,0,2013-08-20 14:35:00
7:55 AM,60.8,60.8,100,29.89,10.0,Calm,Calm,-,N/A,,Unknown,0,2013-08-20 14:55:00
8:15 AM,62.6,59.0,88,29.89,10.0,Calm,Calm,-,N/A,,Overcast,0,2013-08-20 15:15:00
8:35 AM,62.6,59.0,88,29.90,-9999.0,North,3.5,-,N/A,,Overcast,350,2013-08-20 15:35:00
8:55 AM,62.6,59.0,88,29.90,-9999.0,NNE,3.5,-,N/A,,Overcast,30,2013-08-20 15:55:00
9:15 AM,64.4,59.0,83,29.90,-9999.0,ENE,4.6,-,N/A,,Overcast,60,2013-08-20 16:15:00
9:35 AM,64.4,59.0,83,29.90,-9999.0,NE,4.6,-,N/A,,Overcast,50,2013-08-20 16:35:00
9:55 AM,64.4,59.0,83,29.91,-9999.0,East,4.6,-,N/A,,Overcast,80,2013-08-20 16:55:00
10:15 AM,66.2,59.0,78,29.90,-9999.0,NNE,5.8,-,N/A,,Overcast,20,2013-08-20 17:15:00
10:35 AM,68.0,57.2,68,29.91,-9999.0,NNW,4.6,-,N/A,,Overcast,330,2013-08-20 17:35:00
10:55 AM,69.8,57.2,64,29.91,-9999.0,SW,5.8,-,N/A,,Overcast,220,2013-08-20 17:55:00
11:15 AM,71.6,57.2,60,29.90,-9999.0,WNW,3.5,-,N/A,,Overcast,300,2013-08-20 18:15:00
11:35 AM,73.4,59.0,61,29.90,-9999.0,North,6.9,-,N/A,,Overcast,350,2013-08-20 18:35:00
11:55 AM,73.4,59.0,61,29.90,-9999.0,North,6.9,-,N/A,,Overcast,360,2013-08-20 18:55:00
12:15 PM,73.4,59.0,61,29.89,-9999.0,ENE,8.1,-,N/A,,Overcast,70,2013-08-20 19:15:00
12:35 PM,75.2,59.0,57,29.89,-9999.0,ENE,6.9,-,N/A,,Overcast,70,2013-08-20 19:35:00
12:55 PM,77.0,57.2,50,29.88,-9999.0,ENE,5.8,-,N/A,,Overcast,60,2013-08-20 19:55:00
1:15 PM,80.6,59.0,48,29.87,-9999.0,ENE,8.1,-,N/A,,Mostly Cloudy,60,2013-08-20 20:15:00
1:35 PM,82.4,57.2,42,29.87,-9999.0,NNE,9.2,-,N/A,,Clear,30,2013-08-20 20:35:00
1:55 PM,80.6,59.0,48,29.86,-9999.0,SE,4.6,-,N/A,,Clear,140,2013-08-20 20:55:00
2:15 PM,82.4,59.0,45,29.86,-9999.0,SSE,3.5,-,N/A,Rain,Light Rain,150,2013-08-20 21:15:00
2:35 PM,82.4,57.2,42,29.85,-9999.0,South,4.6,-,N/A,Rain,Light Rain,170,2013-08-20 21:35:00
2:55 PM,84.2,55.4,37,29.84,-9999.0,NNE,6.9,-,N/A,Rain,Light Rain,20,2013-08-20 21:55:00
3:15 PM,84.2,57.2,40,29.83,-9999.0,SW,3.5,-,N/A,Rain,Light Rain,220,2013-08-20 22:15:00
3:35 PM,84.2,57.2,40,29.82,-9999.0,ESE,6.9,-,N/A,Rain,Light Rain,120,2013-08-20 22:35:00
3:55 PM,84.2,59.0,42,29.82,-9999.0,East,5.8,-,N/A,,Clear,100,2013-08-20 22:55:00
4:15 PM,84.2,59.0,42,29.81,-9999.0,SE,5.8,-,N/A,,Clear,130,2013-08-20 23:15:00
4:35 PM,84.2,57.2,40,29.81,-9999.0,East,6.9,-,N/A,,Clear,80,2013-08-20 23:35:00
4:55 PM,84.2,57.2,40,29.81,-9999.0,SE,4.6,-,N/A,,Clear,130,2013-08-20 23:55:00
5:15 PM,82.4,57.2,42,29.80,-9999.0,North,11.5,16.1,N/A,,Clear,360,2013-08-21 00:15:00
5:35 PM,82.4,55.4,39,29.81,-9999.0,NW,10.4,-,N/A,,Clear,320,2013-08-21 00:35:00
5:55 PM,78.8,55.4,44,29.81,-9999.0,NNW,15.0,-,N/A,,Clear,340,2013-08-21 00:55:00
6:15 PM,75.2,53.6,47,29.82,-9999.0,NNW,15.0,-,N/A,,Clear,340,2013-08-21 01:15:00
6:35 PM,73.4,55.4,53,29.83,-9999.0,NNW,15.0,-,N/A,,Clear,340,2013-08-21 01:35:00
6:55 PM,71.6,55.4,57,29.83,-9999.0,NNW,13.8,-,N/A,,Clear,340,2013-08-21 01:55:00
7:15 PM,69.8,53.6,56,29.84,-9999.0,NNW,15.0,-,N/A,,Clear,340,2013-08-21 02:15:00
7:35 PM,66.2,57.2,73,29.85,-9999.0,North,16.1,21.9,N/A,,Clear,350,2013-08-21 02:35:00
7:55 PM,64.4,57.2,77,29.86,-9999.0,North,18.4,21.9,N/A,,Clear,350,2013-08-21 02:55:00
8:15 PM,62.6,57.2,82,29.87,-9999.0,North,13.8,-,N/A,,Clear,350,2013-08-21 03:15:00
8:35 PM,62.6,57.2,82,29.88,10.0,NNW,13.8,19.6,N/A,,Clear,340,2013-08-21 03:35:00
8:55 PM,60.8,57.2,88,29.89,10.0,NNW,11.5,17.3,N/A,,Clear,330,2013-08-21 03:55:00
9:15 PM,60.8,57.2,88,29.89,10.0,NNW,10.4,-,N/A,,Unknown,330,2013-08-21 04:15:00
9:35 PM,59.0,57.2,94,29.90,10.0,NNW,8.1,-,N/A,,Unknown,340,2013-08-21 04:35:00
9:55 PM,59.0,57.2,94,29.91,10.0,NW,6.9,-,N/A,,Unknown,320,2013-08-21 04:55:00
10:15 PM,59.0,55.4,88,29.91,10.0,NNW,3.5,-,N/A,,Unknown,340,2013-08-21 05:15:00
10:35 PM,59.0,57.2,94,29.91,10.0,Calm,Calm,-,N/A,,Unknown,0,2013-08-21 05:35:00
10:55 PM,59.0,57.2,94,29.90,10.0,East,3.5,-,N/A,,Unknown,80,2013-08-21 05:55:00
11:15 PM,57.2,55.4,94,29.90,10.0,Calm,Calm,-,N/A,,Unknown,0,2013-08-21 06:15:00
11:35 PM,59.0,57.2,94,29.90,10.0,East,3.5,-,N/A,,Unknown,100,2013-08-21 06:35:00
11:55 PM,57.2,55.4,94,29.90,10.0,Calm,Calm,-,N/A,,Unknown,0,2013-08-21 06:55:00